[[{"header":{"parameterUnit":"m.s-1","parameterCategory":1,"la1":30.2991,"la2":30.254,"lo1":-89.0895,"lo2":-89.0444,"dy":0.0017,"dx":0.0017,"nx":28,"ny":28,"refTime":"2026-02-03T09:00:00:Z","depth":0,"parameterNumber":2,"parameterNumberName":"U-component_of_WINDS"},"data":[0,0,0,0,0,0,0,0,0,0,0,0,0,0,0,0,0,0,0,0,0,0,0,0,0,0,0,0,0,0,0,0,0,0,0,0,0,0,0,0,0,0,0,0,0,0,0,0,0,0,0,0,0,0,0,0,0,0,1.19,1.19,0,1.1989,1.199,1.1991,1.199,1.1989,1.1988,1.1986,1.2082,1.2086,1.209,0,0,0,0,0,0,0,0,0,0,0,0,0,1.1731,1.1734,1.1899,1.1901,1.1902,1.1989,1.199,1.1992,1.199,1.1989,1.1987,1.1986,1.2081,1.2086,1.209,0,0,0,0,0,0,0,0,0,0,0,0,0,1.1811,1.1735,1.1899,1.1911,1.1913,1.1989,1.1991,1.1992,1.1991,1.1989,1.1987,1.1985,1.208,1.2085,1.2091,1.2161,0,0,1.2108,1.211,0,0,0,0,0,0,0,0,1.1806,1.1817,1.1908,1.1911,1.1913,1.1976,1.1966,1.2049,1.1991,1.1961,1.1986,1.1984,1.2049,1.2057,1.2078,1.2166,1.217,1.2108,1.2111,1.2114,1.2115,0,0,0,0,0,0,0,1.1801,1.1813,1.1935,1.191,1.1913,1.1914,1.1923,1.1982,1.2014,1.1964,1.1964,1.1974,1.205,1.2073,1.208,1.2171,1.2108,1.2113,1.2116,1.2118,1.2324,1.2327,0,0,0,0,0,0,1.1792,1.1809,1.1932,1.1938,1.1854,1.1918,1.1929,1.1958,1.2014,1.202,1.1976,1.1974,1.2064,1.2074,1.2084,1.2172,1.2114,1.2119,1.2122,1.2322,1.2325,1.2327,0,0,0,0,0,0,1.1789,1.1803,1.1929,1.1873,1.1889,1.1923,1.1956,1.1961,1.1983,1.2023,1.2029,1.1993,1.2063,1.2076,1.2142,1.2175,1.2121,1.2126,1.232,1.2323,1.2326,1.2348,0,0,0,0,0,0,1.1784,1.1802,1.1828,1.1874,1.1892,1.1985,1.1958,1.1964,1.1993,1.1991,1.204,1.2047,1.2062,1.2134,1.2148,1.2182,1.2131,1.2317,1.2321,1.2325,1.2344,1.2351,1.2357,0,0,0,0,0,1.1778,1.1831,1.1829,1.1844,1.1925,1.1986,1.1997,1.2013,1.1995,1.2023,1.2048,1.2045,1.2169,1.2141,1.2156,1.2192,1.2315,1.232,1.2325,1.2341,1.235,1.2357,0,0,0,0,0,0,1.1789,1.1837,1.1836,1.1905,1.1941,1.1986,1.2021,1.2021,1.2064,1.2061,1.208,1.2092,1.2159,1.2182,1.215,1.2265,1.224,1.2248,1.2247,1.2256,1.2262,1.2256,1.2135,0,0,0,0,0,1.1799,1.1843,1.1883,1.1941,1.1959,1.1987,1.2014,1.2023,1.2062,1.2078,1.2108,1.2148,1.2196,1.2227,1.2273,1.2347,1.2359,1.238,1.2386,1.2392,1.2399,1.2443,1.2453,1.2343,1.2343,1.2343,0,0,1.1821,1.1853,1.188,1.1944,1.1973,1.202,1.2,1.205,1.2086,1.2086,1.2151,1.2175,1.222,1.2291,1.2324,1.2313,1.2432,1.2398,1.2402,1.2406,1.2449,1.2459,1.2468,1.2346,1.2346,1.2345,0,0,1.1886,1.1913,1.1965,1.1995,1.2039,1.2058,1.207,1.2115,1.2131,1.2196,1.2197,1.2241,1.2322,1.2355,1.2382,1.2461,1.2461,1.2475,1.251,1.2552,1.2561,1.2569,1.2599,1.2609,1.2482,1.2482,1.2482,0,1.1908,1.1977,1.1992,1.2043,1.2072,1.2073,1.2127,1.2156,1.2213,1.2234,1.222,1.2324,1.2354,1.2434,1.2454,1.2475,1.2492,1.2471,1.2558,1.2566,1.2574,1.2603,1.2614,1.2484,1.2484,1.2484,1.2484,0,1.2004,1.2052,1.2089,1.2144,1.2177,1.2229,1.2253,1.2285,1.2292,1.2312,1.238,1.2416,1.2471,1.249,1.2497,1.2572,1.2564,1.2554,1.253,1.2586,1.2613,1.2624,1.2486,1.2486,1.2485,1.2485,0,0,1.2078,1.2141,1.2154,1.218,1.223,1.2269,1.2322,1.2374,1.2402,1.2442,1.2489,1.2558,1.255,1.2581,1.2591,1.2628,1.2691,1.2614,1.2616,1.2629,1.2779,1.2787,1.2799,1.269,1.2693,1.2694,1.2775,0,1.2149,1.2242,1.2257,1.234,1.2386,1.2389,1.2435,1.2472,1.2493,1.2536,1.256,1.2609,1.2593,1.2612,1.2648,1.2675,1.2722,1.267,1.2736,1.2738,1.2726,1.2814,1.2822,1.2897,1.2786,1.2788,1.2789,0,1.2245,1.2287,1.2374,1.2419,1.2439,1.248,1.2531,1.2572,1.2614,1.2627,1.2662,1.2669,1.2726,1.2698,1.2779,1.2743,1.2771,1.2789,1.2792,1.28,1.2768,1.2826,1.2921,1.2933,1.2806,1.2805,1.2803,0,1.2292,1.2371,1.2434,1.2456,1.2509,1.2539,1.2563,1.2603,1.2635,1.2679,1.27,1.275,1.2779,1.2819,1.284,1.2817,1.292,1.2893,1.2934,1.2933,1.2956,1.2955,1.3059,1.2971,1.2971,1.2971,1.2971,0,1.2371,1.2425,1.2456,1.2495,1.2556,1.2573,1.2634,1.2657,1.2694,1.2739,1.2744,1.2786,1.281,1.2857,1.2874,1.2939,1.2951,1.2965,1.2969,1.2965,1.2964,1.2985,1.2981,1.2974,1.2973,1.2973,1.2972,0,1.2436,1.2458,1.2527,1.2573,1.2585,1.2629,1.2668,1.2707,1.2728,1.2785,1.2799,1.2832,1.2887,1.2912,1.298,1.2991,1.3067,1.3066,1.3052,1.3054,1.3094,1.3091,1.3217,1.3236,1.3134,1.3135,1.3136,0,1.2485,1.2526,1.2577,1.2607,1.2631,1.2679,1.2711,1.2731,1.2764,1.2816,1.285,1.2904,1.295,1.3038,1.3069,1.3122,1.3124,1.3164,1.3132,1.3128,1.3127,1.3125,1.313,1.3171,1.3172,1.3173,1.3173,0,1.2572,1.2581,1.2626,1.2676,1.2714,1.2754,1.2794,1.2819,1.2845,1.2882,1.2938,1.2973,1.3043,1.3098,1.3153,1.3179,1.3182,1.3183,1.3196,1.3194,1.3185,1.3192,1.307,1.3181,1.318,1.3179,1.3179,1.3179,1.2631,1.2669,1.2711,1.2762,1.2793,1.2831,1.287,1.2896,1.2942,1.3,1.3009,1.3069,1.3113,1.3186,1.3215,1.3264,1.3254,1.3272,1.3277,1.3281,1.3285,1.3175,1.3274,1.3273,1.3273,1.3273,1.3273,0,1.272,1.2747,1.2793,1.2849,1.2889,1.2886,1.2931,1.2965,1.3018,1.3058,1.3102,1.3168,1.3222,1.3257,1.3313,1.3345,1.3348,1.3359,1.3358,1.3364,1.3289,1.3274,1.3356,1.3356,1.3356,1.3356,1.3356,1.3356,1.2771,1.2835,1.285,1.2931,1.2958,1.3016,1.3042,1.3077,1.3109,1.3182,1.3227,1.3249,1.3288,1.3347,1.3397,1.3406,1.3427,1.3439,1.3449,1.3378,1.3369,1.3361,1.3347,1.3443,1.3443,1.352,1.3521,1.3521]},{"header":{"parameterUnit":"m.s-1","parameterCategory":1,"la1":30.2991,"la2":30.254,"lo1":-89.0895,"lo2":-89.0444,"dy":0.0017,"dx":0.0017,"nx":28,"ny":28,"refTime":"2026-02-03T09:00:00:Z","depth":0,"parameterNumber":3,"parameterNumberName":"V-component_of_WINDS"},"data":[0,0,0,0,0,0,0,0,0,0,0,0,0,0,0,0,0,0,0,0,0,0,0,0,0,0,0,0,0,0,0,0,0,0,0,0,0,0,0,0,0,0,0,0,0,0,0,0,0,0,0,0,0,0,0,0,0,0,3.3965,3.3966,0,3.4031,3.4032,3.4032,3.4006,3.4005,3.4003,3.4002,3.4069,3.4072,3.4075,0,0,0,0,0,0,0,0,0,0,0,0,0,3.3817,3.3819,3.3965,3.3966,3.3967,3.4031,3.4032,3.4033,3.4007,3.4005,3.4003,3.4001,3.4068,3.4071,3.4075,0,0,0,0,0,0,0,0,0,0,0,0,0,3.3882,3.382,3.3965,3.3962,3.3962,3.4031,3.4032,3.4033,3.4007,3.4005,3.4002,3.4,3.4066,3.4071,3.4076,3.4151,0,0,3.409,3.4093,0,0,0,0,0,0,0,0,3.3878,3.3887,3.3961,3.3962,3.3962,3.4008,3.4004,3.4073,3.4008,3.399,3.4002,3.3999,3.405,3.4056,3.4074,3.4155,3.4157,3.4091,3.4094,3.4096,3.4097,0,0,0,0,0,0,0,3.3873,3.3884,3.3991,3.3962,3.3963,3.3957,3.3963,3.4017,3.4032,3.3991,3.399,3.3998,3.405,3.4069,3.4075,3.4158,3.4091,3.4095,3.4098,3.41,3.4305,3.4308,0,0,0,0,0,0,3.3869,3.388,3.3989,3.3993,3.3914,3.3961,3.3969,3.3996,3.4032,3.4035,3.4,3.3996,3.4062,3.4069,3.4077,3.4169,3.4096,3.41,3.4103,3.4303,3.4306,3.4308,0,0,0,0,0,0,3.3866,3.3879,3.3986,3.3936,3.395,3.3966,3.3997,3.3998,3.4017,3.4038,3.404,3.4016,3.406,3.407,3.4133,3.4171,3.4102,3.4107,3.43,3.4304,3.4307,3.4352,0,0,0,0,0,0,3.3862,3.3878,3.3907,3.3937,3.3952,3.4042,3.3999,3.4001,3.4026,3.4022,3.4054,3.4057,3.4059,3.4126,3.4138,3.4176,3.4111,3.4296,3.4301,3.4306,3.4348,3.4357,3.4365,0,0,0,0,0,3.3856,3.3917,3.3909,3.3922,3.3989,3.4044,3.4053,3.4054,3.4029,3.4058,3.4071,3.4056,3.4165,3.4133,3.4146,3.4186,3.4294,3.43,3.4305,3.4343,3.4355,3.4365,0,0,0,0,0,0,3.389,3.3921,3.3912,3.3984,3.4012,3.4039,3.4077,3.4066,3.4102,3.4097,3.4097,3.4104,3.4169,3.4184,3.4148,3.4261,3.4225,3.4234,3.425,3.4261,3.427,3.4265,3.4115,0,0,0,0,0,3.3906,3.3948,3.3972,3.4034,3.4048,3.406,3.4084,3.4083,3.4111,3.4123,3.4141,3.4169,3.4209,3.4236,3.4274,3.4349,3.4356,3.4383,3.4392,3.4399,3.4407,3.4448,3.4461,3.4327,3.4327,3.4327,0,0,3.3939,3.3961,3.3988,3.4041,3.4062,3.4106,3.407,3.4118,3.415,3.413,3.4191,3.4205,3.4236,3.4305,3.4337,3.432,3.4445,3.4407,3.4412,3.4416,3.4455,3.4468,3.4479,3.4331,3.4331,3.433,0,0,3.4022,3.4043,3.4097,3.4119,3.4151,3.4159,3.4172,3.4201,3.421,3.4271,3.4257,3.4295,3.4365,3.4388,3.4409,3.45,3.4488,3.4513,3.456,3.46,3.4611,3.462,3.4653,3.4665,3.452,3.452,3.452,0,3.406,3.4125,3.4125,3.4174,3.4198,3.4182,3.4237,3.4258,3.4301,3.4318,3.4298,3.4385,3.4405,3.448,3.4502,3.4519,3.4534,3.4509,3.4609,3.4618,3.4627,3.4659,3.4671,3.4523,3.4523,3.4522,3.4522,0,3.417,3.4215,3.4254,3.4297,3.4325,3.4377,3.4385,3.4413,3.441,3.4419,3.4481,3.4505,3.4548,3.4565,3.4562,3.464,3.4628,3.4608,3.4572,3.4643,3.4673,3.4685,3.4527,3.4526,3.4525,3.4525,0,0,3.4276,3.4319,3.4333,3.4353,3.4388,3.4423,3.4473,3.4515,3.454,3.457,3.4613,3.4672,3.4654,3.4678,3.4677,3.4712,3.4784,3.4688,3.4689,3.4706,3.4872,3.4887,3.4901,3.4776,3.4778,3.478,3.487,0,3.4363,3.4452,3.4454,3.4535,3.4578,3.4563,3.4607,3.4633,3.4643,3.468,3.4691,3.4734,3.4707,3.4721,3.4755,3.4768,3.4818,3.4762,3.4816,3.4818,3.4809,3.4917,3.4933,3.5017,3.4881,3.4883,3.4885,0,3.4475,3.451,3.4596,3.4625,3.4643,3.4683,3.4722,3.4757,3.4787,3.4791,3.4818,3.4812,3.4863,3.4825,3.4896,3.4858,3.488,3.489,3.4893,3.4899,3.4856,3.4926,3.5043,3.5056,3.4903,3.4902,3.49,0,3.4546,3.4613,3.4674,3.4691,3.4726,3.4755,3.477,3.4797,3.4823,3.4857,3.4873,3.4912,3.4934,3.4964,3.4969,3.4941,3.5041,3.5002,3.5046,3.5046,3.5069,3.5067,3.5192,3.5082,3.5081,3.5081,3.5081,0,3.4642,3.4696,3.4706,3.4743,3.4803,3.4804,3.4863,3.4876,3.49,3.494,3.4929,3.4966,3.497,3.5008,3.5012,3.507,3.508,3.5086,3.5086,3.5087,3.5086,3.5102,3.5097,3.5085,3.5084,3.5083,3.5083,0,3.4731,3.474,3.4805,3.4833,3.4842,3.4884,3.4908,3.4944,3.4953,3.5003,3.5015,3.5029,3.5074,3.5081,3.5133,3.5136,3.5206,3.52,3.5196,3.5196,3.5239,3.5235,3.5379,3.5398,3.5275,3.5276,3.5277,0,3.4792,3.4833,3.4866,3.4892,3.491,3.4951,3.4977,3.498,3.5007,3.5044,3.5075,3.5118,3.5154,3.5225,3.524,3.528,3.5276,3.5323,3.5282,3.5281,3.5277,3.5275,3.5279,3.5331,3.5333,3.5334,3.5335,0,3.4901,3.4903,3.4941,3.4981,3.5013,3.5044,3.5073,3.5095,3.5102,3.5133,3.5179,3.5206,3.5259,3.5303,3.5343,3.5359,3.5348,3.5347,3.536,3.5362,3.5358,3.5361,3.5219,3.5344,3.5343,3.5343,3.5342,3.5342,3.4978,3.5014,3.5043,3.5086,3.5108,3.5136,3.5171,3.5185,3.5223,3.5267,3.5266,3.5316,3.5344,3.5397,3.5416,3.5455,3.5439,3.5457,3.5462,3.5466,3.5471,3.5351,3.5462,3.5462,3.5461,3.5461,3.5461,0,3.5086,3.5104,3.5144,3.5186,3.5219,3.5206,3.5238,3.5267,3.5312,3.5339,3.5374,3.5427,3.5469,3.5487,3.5528,3.5556,3.5552,3.5567,3.5565,3.5569,3.5482,3.5467,3.557,3.557,3.5569,3.5569,3.5569,3.5569,3.5147,3.5207,3.5213,3.5284,3.5301,3.5351,3.537,3.5396,3.5418,3.5477,3.5513,3.5524,3.5548,3.5591,3.5629,3.5633,3.5649,3.5666,3.5668,3.5586,3.5575,3.5565,3.5551,3.5669,3.567,3.5752,3.5753,3.5754]}]]